International Virtual Aviation Organisation

Russian Federation and Kazakhstan MCD

 

Карточка аэропорта UUYY

Внимание!
Информация на этой странице в стадии наполнения.
Если вы не увидели какой-то информации, или заметили неточность - пожалуйста сообщите нам!
Спасибо!
Команда RU-STAFF
Название аэропортаСыктывкар
Название аэропорта (англ.)Syktyvkar
Превышение341 ft. (103.9 m.)
Координаты61°38.502', 50°50.298'
Высота перехода700
Эшелон переходаQFE>760: FL40; 760>QFE>733: FL50; 733 >QFE :FL60;
Коды ответчика3130-3134, 5752-5757, 5770-5777, 6701-6717
Зона ОрВДСыктывкар РПИ (UUYY)
Данные METARUUYY 270330Z 13002MPS 9000 -SHSN BKN025CB M06/M07 Q1023 R18/450240 NOSIG RMK QFE759/1012
Проноз погоды (TAF)UUYY 270200Z 2703/2803 14003MPS 6000 FEW010 BKN016CB TEMPO 2703/2706 3100 -SHSN BR FEW007 BKN012CB FM270600 12003G08MPS 9999 FEW011 BKN017CB TEMPO 2706/2803 6000 -SHSN BKN016CB
NOTAMshow/hide NOTAM
AWOS   TABLE

Информация о ВПП

ВПП Длина ВПП (м.) Покрытие Курс ВПП Частота ILS
012500Асфальтобетон6108.3
192500Асфальтобетон186111.7

Диспетчерские позиции

Позывной Наименование органа УВД Частота
UUYY_TWRСивкар-Старт124.600
UUYY_R_APPСивкар-Круг124.600



Спутниковое изображение